Location: Cluj-Napoca
(46.7712°N, 23.6236°E)
Time: 16:14:59
(UTC+03:00)

ISS - Pass Details

Date: 26 May 2020
Orbit: 417 x 420 km, 51.6° (Epoch: 25 May)

Event Time Altitude Azimuth Distance (km) Brightness Sun altitude
Rises 00:58:25 0° 291° (WNW) 2,368 0.4 -21.9°
Reaches altitude 10° 01:00:40 10° 280° (W) 1,501 -0.8 -21.9°
Enters shadow 01:01:21 14° 274° (W) 1,265 -1.3 -21.9°
